STARLINK-32412, 61680

Orbit data source: Space-Track

STARLINK-32412, 61680 is a payload satellite owned by SpaceX/Seattle (US) in LEO that was launched on Sat, 26 Oct 2024 UTC via an FALCON 9 launch vehicle from the Air Force Eastern Test Range (AFETR). Payload-class satellites include a variety of spacecraft equipped with specific instruments for various scientific and technological missions. These include communications satellites like Starlink; space stations such as the ISS; scientific satellites like the Hubble; Earth observation satellites from companies like Planet Labs, Umbra, and HawkEye 360; GPS; miniature CubeSats for education and research; and military/defense satellites.

Loading next visibility...
Identifier
61680, 2024-193V
Orbit
LEO
Last TLE update
21 hours ago
Origin
Manufacturer
SpaceX/Seattle
Mission
Operational Commercial Communications
Bus & Motor
STARLINK V2M, Unknown motor
Mass
730 kg wet, ~700 kg dry
Launch date (UTC)
2024-10-26 (8 months ago)
Launch vehicle
FALCON 9
Launch site
Air Force Eastern Test Range (AFETR)
Object type
Payload
Rocket body
Debris
Shape & HBR
Box + 2 Pan, 29 m
Radar Cross Section
36.964 m², Large (>1 m²)

Expand to show TLE details & history

TLE from 21 hours ago
0 STARLINK-32412
1 61680U 24193V   25187.19605505 -.00000656  00000-0 -10016-4 0  9995
2 61680  53.1594 156.2044 0001349  75.3164 284.7986 15.30196674 38787
Epoch: 2025-07-06T04:42Z
TLE epoch observation values (Epoch: 2025-07-06T04:42:19.156Z)
Latitude
-0.00003°
Longitude
161.20134°
Altitude
475.889 km
Speed
7.629 km/s
True Right ascension
10h 24m 49s
True Declination
0° 00' 00"
Sunlit
Object was in daylight at epoch
Visualization orbit readout
Latitude
39.11599°
Longitude
-60.14089°
Altitude
478.037 km
Speed
7.632 km/s
Apparent Right ascension
22h 29m 43s
Apparent Declination
1° 50' 36"
Sunlit
Object is in full shadow
Visualization observer readout
Local Sidereal Time
13:39:07
Azimuth
58.009° ENE
Elevation
-29.917°
Doppler factor
1
Orbital elements
Apogee altitude
476.406 km
Perigee altitude
474.557 km
Semi-major axis
6,853.619 km
Eccentricity
0.00013
Inclination
53.1594°
RAAN
156.2044°
Arg. of periapsis
75.3164°
True anomaly
Unknown
Mean anomaly
284.7986°
Eccentric anomaly
Unknown
Mean motion
3.82528 °/min
Orbital period
94.11 mins
BSTAR
-0.000010016
Loading maneuver chart data...
Loading SW <> Apogee altitude chart data...
Loading historical data...
Loading historical data...
Loading historical data...
Loading historical data...
Loading historical data...
Loading historical data...
Loading historical data...

STARLINK-32412 Visibility forecast

Observer location: undefined°, undefined°

Span
Click to sort rows by Start time (UTC) header in descending order
Start Az.
Max El. time (UTC)
Max El. Az.
Max El.
End time (UTC)
End Az.
4 mins2025-07-07 06:15:27.608Z345.203° N2025-07-07 06:17:27.608Z32.907° NE23.077°2025-07-07 06:19:27.608Z75.599° E
5 mins2025-07-07 07:53:27.608Z287.923° WNW2025-07-07 07:55:27.608Z217.736° SW36.312°2025-07-07 07:58:27.608Z152.327° SSE
5 mins2025-07-08 00:48:27.608Z255.034° W2025-07-08 00:50:27.608Z300.875° NW35.78°2025-07-08 00:53:27.608Z35.669° NE
|